Location: Bachas
(43.2439°N, 0.9375°E)
Time: 16:17:47
(UTC+00:00)

Cosmos 1633 - Pass Details

Date: 18 February 2020
Orbit: 464 x 482 km, 82.5° (Epoch: 29 March)

Event Time Altitude Azimuth Distance (km) Brightness Sun altitude
Rises 05:01:35 0° 359° (N) 2,556 6.3 -20.5°
Reaches altitude 10° 05:03:48 10° 8° (N) 1,672 5.4 -20.1°
Maximum altitude 05:07:14 38° 77° (ENE) 758 4.1 -19.5°
Drops below altitude 10° 05:10:38 10° 147° (SSE) 1,657 5.7 -18.9°
Sets 05:12:49 0° 156° (SSE) 2,530 6.5 -18.5°
